This demonstration page uses our WeatherBlox Daily Observations layout. Learn more.

Left ArrowRight Arrow

44.89941, -97.11507

Hourly Observations for March 23, 2017

Temp ( °F °C ) Dew Point ( °F °C ) Humidity (%) Winds ( mph kmh ) Pressure ( in mb ) Visibility ( mi km ) Precip ( " mm )
12:53 am 00:53 Mostly Clear 35 1.7 25 -3.9 67 67 SSE 22 35 30.04 1017 10 16 0.00 0.00
1:53 am 01:53 Partly Cloudy 36 2.2 25 -3.9 64 64 S 18 30 30.05 1018 10 16 0.00 0.00
2:53 am 02:53 Clear 35 1.7 26 -3.3 70 70 SSE 18 30 30.01 1016 10 16 0.00 0.00
3:53 am 03:53 Mostly Clear 36 2.2 26 -3.3 67 67 S 17 28 29.99 1016 10 16 0.00 0.00
4:53 am 04:53 Clear 37 2.8 26 -3.3 65 65 S 20 31 29.96 1015 10 16 0.00 0.00
5:53 am 05:53 Clear 36 2.2 26 -3.3 67 67 S 17 28 29.95 1014 10 16 0.00 0.00
6:53 am 06:53 Clear 35 1.7 26 -3.3 70 70 SSE 18 30 29.93 1014 10 16 0.00 0.00
7:53 am 07:53 Sunny 35 1.7 26 -3.3 70 70 SSE 13 20 29.93 1014 10 16 0.00 0.00
8:53 am 08:53 Sunny 36 2.2 26 -3.3 67 67 SSE 17 28 29.91 1013 10 16 0.00 0.00
9:53 am 09:53 Sunny 38 3.3 26 -3.3 62 62 S 14 22 29.89 1012 10 16 0.00 0.00
10:48 am 10:48 Cloudy 39 4 27 -3 61 61 SSE 15 24 29.88 1012 10 16 0.00 0.00
10:53 am 10:53 Cloudy 39 3.9 26 -3.3 60 60 SSE 13 20 29.85 1011 10 16 0.00 0.00
11:53 am 11:53 Cloudy 39 3.9 27 -2.8 62 62 SSE 18 30 29.83 1010 10 16 0.00 0.00
12:22 pm 12:22 Cloudy 38 3.3 29 -1.7 70 70 S 20 31 29.85 1011 10 16 0.00 0.00
12:53 pm 12:53 Cloudy with Haze 37 2.8 31 -0.6 79 79 SSE 13 20 29.81 1010 5 8 0.00 0.03
1:53 pm 13:53 Cloudy 38 3.3 32 0 79 79 S 14 22 29.80 1009 10 16 0.00 0.00
2:12 pm 14:12 Cloudy 38 3.3 33 0.6 83 83 SSE 13 20 29.80 1009 10 16 0.00 0.00
2:36 pm 14:36 Cloudy with Mist and Fog 37 2.8 35 1.7 93 93 SSE 12 19 29.80 1009 2 3 0.00 0.00
2:53 pm 14:53 Cloudy with Mist and Fog 37 2.8 35 1.7 93 93 SSE 10 17 29.77 1008 2 3 0.00 0.00
3:25 pm 15:25 Cloudy with Mist and Fog 37 2.8 36 2.2 96 96 SSE 8 13 29.77 1008 4 6 0.00 0.00
3:34 pm 15:34 Cloudy with Mist and Fog 37 2.8 36 2.2 96 96 SSE 8 13 29.77 1008 4 6 0.00 0.00
3:50 pm 15:50 Cloudy with Mist and Fog 37 3 36 2 93 93 SE 8 13 29.77 1008 2 3 0.00 0.00
3:53 pm 15:53 Cloudy with Mist and Fog 37 2.8 36 2.2 96 96 SSE 8 13 29.76 1008 2 2 0.00 0.00
4:08 pm 16:08 Cloudy with Mist and Fog 37 2.8 36 2.2 96 96 SSE 12 19 29.77 1008 1 2 0.00 0.00
4:17 pm 16:17 Cloudy with Mist and Fog 38 3.3 37 2.8 97 97 SE 10 17 29.77 1008 2 2 0.00 0.00
4:53 pm 16:53 Cloudy with Mist and Fog 38 3.3 38 3.3 100 100 SE 10 17 29.75 1007 2 2 0.00 0.00
5:53 pm 17:53 Cloudy with Mist and Fog 39 3.9 38 3.3 96 96 SE 7 11 29.74 1007 2 2 0.00 0.00
6:05 pm 18:05 Cloudy with Mist and Fog 39 3.9 38 3.3 96 96 SE 10 17 29.77 1008 1 2 0.00 0.00
6:17 pm 18:17 Cloudy with Mist and Fog 39 3.9 38 3.3 96 96 SE 12 19 29.77 1008 2 2 0.00 0.00
6:53 pm 18:53 Cloudy with Mist and Fog 39 3.9 38 3.3 96 96 SSE 7 11 29.75 1007 2 3 0.00 0.00
7:28 pm 19:28 Cloudy with Mist and Fog 39 3.9 38 3.3 96 96 Calm 29.77 1008 1 2 0.00 0.00
7:45 pm 19:45 Cloudy with Mist and Fog 39 3.9 38 3.3 96 96 Calm 29.80 1009 2 3 0.00 0.00
7:53 pm 19:53 Cloudy with Mist and Fog 39 3.9 38 3.3 96 96 NNE 3 6 29.77 1008 2 2 0.00 0.00
8:03 pm 20:03 Cloudy with Mist and Fog 38 3.3 37 2.8 97 97 N 6 9 29.80 1009 1 2 0.00 0.00
8:16 pm 20:16 Cloudy with Mist and Fog 36 2.2 35 1.7 97 97 NE 8 13 29.80 1009 2 3 0.00 0.00
8:30 pm 20:30 Cloudy with Mist and Fog 36 2.2 35 1.7 97 97 NNE 3 6 29.80 1009 3 5 0.00 0.00
8:53 pm 20:53 Cloudy with Mist and Fog 36 2.2 35 1.7 97 97 NNE 5 7 29.80 1009 3 5 0.00 0.00
9:21 pm 21:21 Cloudy with Mist and Fog 36 2.2 35 1.7 97 97 NE 5 7 29.83 1010 5 8 0.00 0.00
9:53 pm 21:53 Cloudy 36 2.2 35 1.7 97 97 NE 6 9 29.80 1009 9 14 0.00 0.00
10:53 pm 22:53 Cloudy 36 2.2 35 1.7 97 97 ENE 5 7 29.82 1010 10 16 0.00 0.00
11:24 pm 23:24 Cloudy 35 1.7 34 1.1 96 96 NNE 7 11 29.85 1011 9 14 0.00 0.00
11:53 pm 23:53 Cloudy 35 1.7 34 1.1 96 96 NE 6 9 29.83 1010 7 11 0.00 0.00

Powered by AerisWeather